Wind_Speed
7 5 3 20 23 18 19 18 16 10 23 33 24 17 32 25 19 31 32 33 34 36 37 36 40 43 45 46 47 50 50 50 52 52 53 57 59 61 62 64 64 64 63 66
7 8 9 8 22 23 21 24 27 15 24 36 23 21 26 31 25 26 30 35 35 39 43 44 44 44 45 46 48 49 50 50 52 54 56 57 60 63 64 67 67 66 67 68
8 15 10 14 18 17 18 17 20 27 28 28 25 22 20 34 34 28 30 32 36 40 41 45 46 49 48 49 49 49 50 52 53 55 57 58 60 63 66 68 70 70 68 67
15 15 15 15 18 15 15 24 22 18 25 24 17 23 17 32 37 34 34 38 38 40 41 45 49 49 49 50 53 58 56 52 54 55 57 60 62 63 65 68 70 68 70 53
18 16 15 18 21 17 17 19 19 19 20 22 20 23 17 29 34 42 41 46 49 48 46 47 51 52 55 56 58 60 62 61 60 58 59 61 63 64 65 67 69 69 71 73
17 18 16 17 18 18 16 16 16 18 19 16 10 13 8 17 29 35 39 45 49 52 53 53 56 58 62 65 67 68 70 67 65 56 62 65 65 64 64 66 68 69 70 72
21 24 27 13 19 21 17 16 16 10 8 12 13 22 21 37 39 35 34 43 46 51 52 54 59 65 70 73 75 72 72 64 60 57 57 62 63 65 65 65 66 67 69 71
13 15 34 25 18 19 21 20 19 17 13 17 24 23 26 37 38 40 40 46 51 56 60 62 65 71 74 76 72 68 59 54 50 49 50 51 54 57 60 62 62 62 64 65
19 19 28 30 24 21 21 20 20 21 19 20 8 18 27 34 41 40 43 51 55 58 59 63 68 72 75 78 64 54 50 50 48 44 44 46 47 49 49 52 53 54 56 57
23 22 25 28 19 20 20 20 21 23 23 22 13 18 28 37 38 41 45 49 54 60 64 66 71 76 72 60 58 50 52 50 45 45 42 40 39 43 47 46 47 47 46 46
21 21 20 21 24 21 21 21 22 22 23 25 26 12 34 35 39 44 49 56 61 64 67 70 75 74 66 56 50 47 44 40 38 37 34 34 32 34 37 37 37 38 39 41
19 21 21 23 27 22 23 22 24 26 27 26 30 30 36 38 45 51 54 57 60 64 67 71 73 65 55 51 47 42 41 39 36 34 32 30 29 29 31 32 34 36 36 36
21 22 22 21 24 23 19 19 24 28 29 26 30 32 28 35 45 49 56 59 63 67 70 71 68 56 50 44 44 43 40 37 35 33 33 32 33 33 32 32 31 30 31 33
21 22 24 20 19 28 28 25 25 29 32 32 32 35 36 43 48 53 58 61 64 68 70 70 55 48 44 44 41 40 37 35 36 34 33 33 33 32 30 29 30 31 31 28
22 22 24 23 21 22 24 25 26 29 30 34 35 37 40 47 50 55 60 62 65 69 70 66 50 44 44 42 40 36 35 36 38 39 41 41 38 35 33 29 28 27 27 24
25 24 24 24 23 24 24 23 26 26 29 33 35 38 43 47 50 55 60 63 66 67 69 58 48 46 42 40 33 32 36 39 41 43 44 43 42 40 39 35 30 28 27 23
22 25 26 23 23 25 25 24 23 26 29 35 36 39 44 47 52 56 59 65 67 69 61 51 46 42 41 32 32 33 40 44 46 44 42 40 39 38 36 34 32 28 24 23
26 26 27 25 23 24 26 25 24 27 29 32 35 40 43 47 52 55 60 65 67 66 52 49 45 41 31 30 35 42 49 47 43 40 39 38 35 35 31 28 27 26 23 21
26 28 27 25 23 24 24 32 23 29 28 31 35 39 43 48 52 55 62 63 67 56 48 44 40 34 32 33 41 47 44 44 35 33 34 33 28 22 19 19 19 19 18 18
25 26 28 25 28 27 26 25 25 33 36 34 38 41 45 50 53 58 59 62 61 49 44 41 37 34 36 38 41 43 42 37 33 30 25 20 17 11 9 5 5 8 13 15
33 28 26 26 27 25 30 28 28 32 36 38 42 44 47 50 54 57 57 61 52 43 39 37 37 37 37 40 39 38 40 33 29 24 19 17 12 10 8 4 1 4 7 4
34 36 27 26 28 27 28 29 30 33 36 39 40 44 46 49 54 54 58 59 44 36 36 36 35 37 38 39 34 37 32 26 22 22 20 17 15 15 12 9 6 6 6 5
33 29 27 29 28 29 27 26 32 33 34 37 40 43 45 50 52 53 58 54 38 32 34 36 35 34 36 36 33 31 25 19 20 22 19 17 16 14 16 16 14 11 8 6
30 28 25 27 26 29 27 30 29 32 35 38 41 42 47 50 50 53 56 45 34 30 33 35 32 33 33 32 30 26 22 22 18 20 19 18 18 19 17 14 13 10 18 16
28 33 31 25 26 27 28 28 29 32 34 37 39 42 47 47 48 53 52 37 29 27 33 32 30 32 30 28 26 23 20 18 18 18 19 18 19 19 18 15 16 20 17 11
29 30 33 26 28 25 27 27 29 31 34 36 38 43 45 45 47 52 47 30 24 25 29 31 31 28 26 25 24 22 17 13 14 15 16 14 14 15 16 14 14 12 15 18
Wind_Direction
307 313 285 234 230 259 245 232 224 230 276 276 283 251 268 295 294 294 300 304 303 302 303 300 298 297 294 292 290 288 287 283 280 277 275 274 275 275 274 274 273 272 272 270
293 308 271 279 257 267 263 246 246 266 267 275 276 273 273 292 294 292 300 302 302 304 304 303 301 299 297 294 291 289 286 282 280 278 275 273 272 271 271 270 270 270 272 272
252 265 299 286 278 272 268 249 247 233 238 272 294 286 280 292 300 301 300 301 302 304 306 306 307 306 305 302 298 294 291 287 282 277 274 270 268 269 270 269 270 272 272 272
278 292 287 289 285 293 267 263 274 270 262 270 257 277 253 279 295 301 302 302 305 307 311 311 310 309 309 307 306 303 297 289 286 280 274 271 269 265 264 265 267 267 268 264
281 308 297 291 292 294 280 287 269 269 271 274 281 278 285 281 288 295 311 314 314 316 316 317 314 313 312 311 311 308 304 300 293 284 276 270 266 265 264 264 264 265 265 266
293 307 304 302 298 291 287 276 274 278 286 293 322 287 253 270 284 283 297 311 315 317 318 319 315 315 317 316 313 310 307 301 291 278 273 271 269 267 266 266 265 265 265 264
304 319 314 326 313 307 305 295 292 288 310 322 274 271 266 267 271 284 294 301 311 311 314 314 319 321 319 318 317 311 304 299 294 287 277 271 270 269 267 266 266 266 266 267
276 288 289 318 302 299 295 300 288 285 253 221 237 285 265 281 290 294 292 307 306 319 324 322 322 323 320 314 311 304 303 300 295 293 288 281 273 270 269 269 271 270 270 270
289 254 277 295 306 301 295 285 297 289 289 285 294 281 276 278 286 303 306 318 321 319 321 321 324 321 315 316 313 308 307 309 308 301 293 285 279 275 271 267 270 272 273 272
287 285 285 304 293 294 290 293 292 293 296 294 275 251 264 276 298 306 312 314 316 322 325 324 321 321 320 308 307 310 304 310 308 303 298 292 282 276 276 275 273 271 272 275
288 292 288 298 293 301 298 296 290 290 293 298 300 269 274 299 305 310 317 323 325 322 323 323 323 322 316 316 314 314 312 308 305 302 300 297 291 284 279 276 274 275 276 276
295 292 294 297 296 298 294 292 290 294 299 300 301 304 303 306 315 322 321 320 322 322 323 323 324 321 316 316 316 316 313 311 305 303 301 296 290 282 278 276 274 274 275 277
296 296 296 296 292 288 294 297 292 293 294 299 295 303 309 304 306 314 318 322 323 324 324 325 324 319 317 318 318 314 312 310 308 304 300 297 293 290 286 282 279 278 278 280
297 298 298 298 273 292 303 302 300 299 301 305 309 309 312 308 311 316 320 323 324 324 323 326 322 319 319 317 315 312 311 311 307 306 306 303 298 293 287 282 280 277 280 284
298 297 296 297 287 278 285 293 297 298 300 298 306 305 306 308 312 318 320 322 323 323 325 326 325 322 319 318 317 316 313 310 308 307 304 301 298 295 292 286 281 282 279 280
298 295 297 301 291 287 288 296 296 297 296 296 302 306 304 309 314 316 321 322 324 325 329 327 326 319 319 318 319 319 318 314 310 306 302 297 293 288 283 281 281 280 279 279
305 300 300 305 288 288 298 291 299 300 301 300 305 306 308 312 317 321 323 324 327 332 330 325 323 321 322 320 322 319 317 316 312 309 305 302 296 288 282 277 271 274 278 277
304 301 300 303 293 294 296 305 311 300 302 301 307 307 312 315 320 325 324 329 332 331 330 328 323 323 323 325 325 326 325 323 319 312 307 305 301 291 281 273 269 263 272 278
296 299 299 303 293 294 298 307 311 299 303 309 307 311 315 320 324 329 331 331 332 333 336 336 337 335 333 326 330 331 333 330 326 321 315 312 307 299 289 281 266 258 269 281
298 299 295 299 294 297 303 310 304 305 308 314 315 319 324 326 328 331 331 333 335 336 339 340 342 338 333 331 331 334 336 337 333 332 335 341 335 329 309 282 254 251 268 283
298 301 295 294 292 296 296 314 307 309 315 318 321 323 324 327 330 330 333 336 335 338 342 345 343 339 336 334 338 339 339 341 354 355 9 9 15 24 34 44 301 284 291 271
293 300 299 293 295 296 304 305 305 309 313 317 319 320 325 328 329 333 335 336 334 339 346 346 343 339 339 340 342 341 347 354 9 18 19 26 36 40 32 38 50 56 56 72
291 290 294 294 293 297 299 302 306 308 313 315 317 320 325 328 332 334 337 335 334 338 344 343 342 343 344 351 350 353 3 18 21 21 26 33 49 47 47 53 59 64 60 76
298 292 289 289 292 294 301 302 303 307 312 315 319 324 325 329 333 336 337 335 334 338 339 343 346 346 348 352 355 359 13 16 17 34 46 53 58 50 44 50 54 72 80 74
297 293 290 288 287 290 296 300 303 308 313 316 321 324 326 330 334 336 336 336 336 338 340 344 345 347 350 356 2 6 17 39 42 55 55 51 62 54 41 37 54 66 66 93
289 289 288 289 286 291 293 301 304 308 311 316 324 323 327 331 333 339 336 338 335 340 346 349 345 346 353 358 6 11 17 38 54 52 56 53 71 57 46 56 47 40 63 59
Height
5901 5902 5906 5903 5901 5902 5903 5902 5903 5903 5897 5894 5894 5895 5886 5884 5885 5879 5876 5872 5869 5866 5864 5862 5857 5853 5849 5845 5842 5836 5832 5829 5824 5822 5819 5815 5813 5811 5808 5805 5805 5806 5803 5802
5900 5901 5899 5900 5900 5899 5898 5897 5897 5898 5897 5889 5889 5888 5884 5878 5879 5876 5870 5865 5861 5857 5852 5849 5847 5843 5839 5835 5830 5826 5821 5817 5812 5808 5804 5803 5800 5795 5794 5790 5790 5791 5790 5789
5897 5895 5896 5896 5894 5893 5892 5889 5889 5887 5885 5884 5883 5882 5882 5872 5869 5870 5867 5861 5857 5852 5847 5840 5835 5829 5825 5820 5817 5813 5809 5804 5799 5793 5790 5787 5783 5780 5778 5774 5773 5774 5775 5774
5893 5893 5892 5891 5888 5887 5886 5882 5882 5882 5881 5880 5881 5877 5881 5869 5864 5862 5859 5854 5850 5843 5838 5831 5824 5820 5815 5808 5801 5793 5792 5790 5783 5780 5775 5770 5766 5764 5761 5758 5757 5760 5757 5761
5889 5888 5888 5886 5883 5881 5880 5878 5878 5877 5876 5875 5876 5873 5874 5866 5862 5852 5846 5840 5835 5831 5828 5823 5815 5808 5800 5794 5787 5781 5773 5769 5765 5759 5753 5750 5747 5744 5742 5741 5740 5741 5741 5739
5885 5884 5883 5881 5879 5876 5875 5874 5873 5872 5872 5871 5870 5871 5872 5862 5855 5852 5845 5838 5830 5824 5818 5812 5805 5797 5788 5779 5771 5762 5754 5748 5742 5738 5731 5727 5726 5725 5725 5723 5723 5723 5723 5723
5880 5877 5872 5877 5875 5871 5870 5870 5869 5870 5869 5870 5868 5867 5868 5857 5854 5851 5846 5838 5830 5821 5815 5807 5795 5783 5772 5762 5751 5741 5732 5726 5720 5715 5711 5707 5706 5705 5704 5704 5704 5705 5704 5705
5880 5880 5870 5870 5872 5870 5867 5866 5865 5865 5865 5865 5864 5863 5856 5848 5846 5845 5838 5830 5824 5808 5798 5790 5780 5766 5756 5747 5739 5725 5715 5708 5703 5699 5694 5690 5687 5686 5687 5686 5686 5686 5685 5687
5875 5874 5870 5867 5866 5866 5862 5862 5862 5860 5860 5858 5861 5855 5849 5843 5839 5835 5828 5816 5807 5798 5790 5781 5770 5757 5743 5730 5719 5710 5700 5694 5690 5685 5681 5676 5673 5671 5670 5669 5671 5671 5669 5668
5871 5870 5866 5862 5864 5862 5860 5859 5857 5854 5853 5852 5853 5851 5840 5834 5832 5825 5818 5812 5802 5789 5778 5769 5758 5741 5726 5715 5706 5698 5690 5684 5678 5672 5669 5664 5660 5658 5657 5658 5657 5656 5655 5655
5866 5866 5864 5862 5858 5856 5855 5853 5852 5851 5849 5845 5842 5845 5832 5830 5823 5815 5808 5797 5786 5777 5768 5756 5742 5728 5712 5701 5694 5687 5681 5676 5670 5664 5659 5654 5651 5650 5648 5646 5646 5645 5644 5643
5863 5860 5859 5857 5852 5853 5850 5849 5846 5843 5843 5840 5835 5833 5825 5820 5810 5802 5796 5789 5780 5769 5757 5745 5730 5716 5703 5693 5684 5678 5673 5668 5661 5655 5651 5648 5645 5642 5640 5638 5637 5635 5634 5632
5858 5855 5854 5853 5849 5847 5846 5844 5841 5839 5836 5835 5830 5827 5822 5814 5807 5799 5789 5780 5769 5757 5744 5732 5717 5704 5693 5684 5676 5670 5664 5657 5652 5648 5644 5641 5637 5634 5631 5629 5627 5625 5624 5624
5853 5851 5848 5849 5846 5841 5839 5839 5836 5832 5828 5825 5822 5816 5813 5805 5797 5790 5780 5770 5758 5746 5733 5721 5707 5694 5685 5677 5669 5662 5656 5649 5644 5640 5636 5632 5628 5625 5622 5620 5618 5616 5615 5614
5848 5846 5843 5841 5841 5838 5836 5833 5830 5827 5824 5818 5815 5811 5805 5796 5790 5781 5771 5761 5750 5737 5722 5708 5695 5685 5677 5669 5662 5654 5648 5642 5636 5631 5626 5621 5618 5615 5613 5610 5608 5607 5606 5605
5843 5840 5837 5836 5834 5831 5830 5829 5824 5822 5818 5813 5809 5805 5796 5790 5783 5775 5763 5751 5740 5725 5709 5695 5685 5677 5669 5661 5654 5648 5642 5635 5627 5620 5614 5608 5604 5601 5600 5599 5599 5598 5597 5597
5837 5834 5832 5831 5827 5826 5825 5822 5819 5816 5812 5806 5802 5797 5790 5783 5775 5766 5753 5741 5727 5712 5698 5687 5678 5668 5660 5654 5648 5642 5634 5626 5616 5608 5601 5595 5590 5587 5586 5586 5588 5589 5589 5590
5830 5829 5825 5824 5821 5821 5817 5816 5814 5809 5805 5801 5796 5789 5783 5776 5767 5757 5744 5729 5715 5703 5691 5679 5668 5661 5654 5648 5642 5634 5624 5613 5603 5596 5589 5583 5578 5575 5574 5574 5576 5579 5582 5582
5826 5823 5820 5818 5815 5815 5814 5807 5808 5803 5801 5795 5789 5784 5777 5768 5759 5748 5733 5721 5708 5694 5683 5673 5663 5656 5650 5644 5636 5626 5615 5604 5594 5587 5580 5574 5569 5566 5566 5566 5568 5572 5575 5576
5820 5818 5815 5813 5809 5807 5807 5805 5801 5794 5790 5788 5781 5774 5766 5758 5748 5739 5727 5715 5701 5689 5679 5669 5661 5653 5647 5639 5631 5621 5610 5600 5590 5582 5576 5570 5565 5563 5562 5563 5565 5568 5570 5570
5812 5812 5809 5806 5803 5802 5797 5797 5794 5790 5787 5778 5772 5765 5759 5750 5741 5732 5720 5707 5694 5685 5676 5667 5659 5651 5644 5636 5627 5617 5608 5598 5589 5582 5576 5571 5567 5565 5564 5564 5565 5567 5567 5567
5806 5801 5802 5800 5797 5796 5792 5790 5788 5783 5778 5772 5767 5760 5753 5744 5735 5724 5713 5701 5689 5682 5674 5666 5658 5649 5641 5632 5624 5616 5606 5599 5592 5585 5580 5576 5572 5570 5568 5567 5567 5567 5568 5568
5799 5798 5796 5794 5792 5789 5787 5785 5780 5777 5773 5767 5761 5755 5746 5738 5728 5718 5707 5694 5685 5678 5671 5664 5656 5648 5640 5632 5624 5616 5608 5601 5596 5590 5585 5581 5578 5576 5574 5573 5573 5572 5571 5571
5791 5791 5790 5788 5787 5783 5781 5777 5775 5771 5766 5761 5754 5748 5740 5731 5722 5712 5701 5689 5681 5675 5669 5662 5655 5648 5641 5633 5625 5618 5611 5605 5600 5596 5591 5588 5584 5583 5581 5579 5578 5576 5575 5574
5788 5783 5782 5782 5780 5777 5774 5772 5769 5765 5760 5754 5749 5742 5734 5725 5717 5707 5695 5685 5678 5672 5667 5660 5654 5647 5641 5634 5627 5620 5614 5609 5605 5602 5598 5594 5591 5590 5588 5586 5583 5582 5581 5579
5780 5778 5774 5776 5773 5772 5769 5766 5763 5760 5755 5749 5744 5737 5729 5720 5712 5702 5689 5681 5676 5671 5665 5659 5652 5646 5640 5635 5629 5623 5618 5614 5610 5607 5604 5601 5598 5596 5594 5593 5591 5588 5588 5586